Voltar ao catálogo

COSMOS 1605

AtivoMilitarPO
NORAD 15359·PAYLOAD·🇷🇺 Russia

Lançado Oct 11, 1984 de Plesetsk Cosmodrome

Loading…

Próximas Passagens (próximas 24 horas)

TLE

AtualizadoSource: Space-Track

Época: Sep 14, 2026, 00:45 UTC

1 15359U 84109A   26257.03176189  .00000035  00000-0  19677-4 0  9994
2 15359  82.9355  86.1969 0047623  74.5498  82.9620 13.75427517104043

Acompanhe COSMOS 1605 em tempo real com AllMySat

Download on the App Store